Find Starlink 2329

NORAD ID: 47873 Int'l Des: 2021-021 Owner: SPXS Country: US Constellation: starlink operational
LEOCIRCULAR

Current View

Loading 3D Globe...

About Starlink 2329

Starlink 2329 (NORAD 47873) is a starlink constellation satellite (v1.0) launched Mar 14, 2021 by SPXS of US. It operates in LEO, CIRCULAR orbit with a mass of 260.00 kg.

About Starlink 2329

Description loading...

Upcoming Passes

Passes for default location (London). Set your location on the main map for personalized predictions.

Altitude History

Loading altitude history...

Two-Line Element Set

1 47873U 21021P 26169.10692042 .00002319 00000-0 86459-4 0 9994
2 47873 53.1572 148.2715 0000974 108.7785 251.3322 15.31699953291807
Epoch: Jun 18, 2026 • Age: 16 hours

Current Status

Altitude 472.0 km
Velocity 7.63 km/s
Sub-Earth Point 28.14°N, 14.05°W
Launch Date Mar 14, 2021
Age 5.2 years
Type internet

Technical Details

Classification Payload
Mass 260.00 kg
Dry Mass 248.00 kg
Total Mass 260.00 kg
Length 0.20 m
Diameter 2.80 m
Span 9.00 m
Shape Box + pan
Manufacturer SPXS
Bus Type Starlink
Phase Status In Orbit
Owner/State SPXS/US

Most Searched